Bar Harbor, ME

6:19 AM EDT on June 25, 2017 (GMT -0400)
Hancock County-Bar Harbor

Weather History for KBHB - March, 2014

Change the Weather History Date:

Tuesday, March 11, 2014

  Actual Average Record
Temperature  
Mean Temperature 36 °F -  
Max Temperature 44 °F 40 °F 60 °F (1977)
Min Temperature 28 °F 24 °F 0 °F (2005)
Degree Days  
Heating Degree Days 29    
Moisture  
Dew Point 33 °F    
Average Humidity 88    
Maximum Humidity 100    
Minimum Humidity 66    
Precipitation  
Precipitation 0.04 in - - ()
Sea Level Pressure  
Sea Level Pressure 29.57 in    
Wind  
Wind Speed 5 mph (SW)    
Max Wind Speed 13 mph    
Max Gust Speed 17 mph    
Visibility 8 miles    
Events      
Averages and records for this station are not official NWS values.
T = Trace of Precipitation, MM = Missing Value Source: NWS Daily Summary

Daily Weather History Graph

Daily Weather History Graph

Search for Another Location

Airport or City:

Trip Planner

Search our weather history database for the weather conditions in past years. The results will help you decide how hot, cold, wet, or windy it might be!

Date:

Astronomy

Mar. 11, 2014 Rise Set
Actual Time 6:53 AM EDT 6:34 PM EDT
Civil Twilight 6:24 AM EDT 7:03 PM EDT
Nautical Twilight 5:50 AM EDT 7:37 PM EDT
Astronomical Twilight 5:16 AM EDT 8:11 PM EDT
Moon 1:59 PM EDT (3/11) 3:52 AM EDT (3/11)
Length of Visible Light 12h 39m
Length of Day
11h 41m
Waxing Gibbous, 78% of the Moon is Illuminated
Mar 11
Waxing Gibbous
Mar 16
Full
Mar 23
Last Quarter
Mar 30
New
Apr 7
First Quarter

Hourly Weather History & Observations

Time (EDT) Temp. Windchill Dew Point Humidity Pressure Visibility Wind Dir Wind Speed Gust Speed Precip Events Conditions
12:15 AM 28.4 °F 24.6 °F 24.8 °F 86% 29.69 in 10.0 mi SSE 3.5 mph - N/A   Overcast
12:35 AM 28.4 °F - 24.8 °F 86% 29.68 in 10.0 mi Calm Calm - N/A   Overcast
12:55 AM 28.4 °F - 24.8 °F 86% 29.68 in 10.0 mi Calm Calm - N/A   Overcast
1:15 AM 28.4 °F - 24.8 °F 86% 29.68 in 10.0 mi Calm Calm - N/A   Overcast
1:35 AM 28.4 °F - 26.6 °F 93% 29.67 in 10.0 mi Calm Calm - N/A   Overcast
1:55 AM 30.2 °F - 26.6 °F 86% 29.66 in 10.0 mi Calm Calm - N/A   Overcast
2:15 AM 30.2 °F - 26.6 °F 86% 29.65 in 9.0 mi Calm Calm - N/A   Overcast
2:35 AM 30.2 °F 25.4 °F 26.6 °F 86% 29.63 in 10.0 mi SE 4.6 mph - N/A   Overcast
2:55 AM 30.2 °F 25.4 °F 28.4 °F 93% 29.61 in 9.0 mi SE 4.6 mph - N/A   Overcast
3:15 AM 30.2 °F 25.4 °F 28.4 °F 93% 29.61 in 4.0 mi SSE 4.6 mph - N/A   Overcast
3:35 AM 30.2 °F 23.4 °F 28.4 °F 93% 29.59 in 6.0 mi SSE 6.9 mph - N/A   Overcast
3:55 AM 30.2 °F - 30.2 °F 100% 29.58 in 5.0 mi Calm Calm - N/A   Overcast
4:15 AM 30.2 °F 24.3 °F 30.2 °F 100% 29.57 in 3.0 mi SE 5.8 mph - N/A   Overcast
4:35 AM 30.2 °F 24.3 °F 30.2 °F 100% 29.56 in 2.5 mi SE 5.8 mph - N/A   Overcast
4:55 AM 32.0 °F 25.6 °F 32.0 °F 100% 29.56 in 3.0 mi SSE 6.9 mph - 0.01 in   Overcast
5:15 AM 32.0 °F 25.6 °F 32.0 °F 100% 29.55 in 5.0 mi SSE 6.9 mph - 0.01 in   Overcast
5:35 AM 33.8 °F 27.0 °F 33.8 °F 100% 29.55 in 3.0 mi SSE 8.1 mph - 0.02 in   Overcast
5:55 AM 33.8 °F 25.3 °F 33.8 °F 100% 29.54 in 6.0 mi South 11.5 mph - 0.02 in   Overcast
6:15 AM 33.8 °F 25.8 °F 33.8 °F 100% 29.53 in 5.0 mi South 10.4 mph - N/A   Overcast
6:35 AM 33.8 °F 27.0 °F 33.8 °F 100% 29.53 in 5.0 mi South 8.1 mph - N/A   Overcast
6:55 AM 33.8 °F 26.4 °F 32.0 °F 93% 29.53 in 4.0 mi South 9.2 mph - 0.01 in   Overcast
7:15 AM 33.8 °F 24.8 °F 32.0 °F 93% 29.52 in 3.0 mi South 12.7 mph - N/A   Overcast
7:35 AM 33.8 °F 26.4 °F 33.8 °F 100% 29.52 in 4.0 mi South 9.2 mph - N/A   Overcast
7:55 AM 35.6 °F 28.6 °F 33.8 °F 93% 29.52 in 5.0 mi South 9.2 mph - N/A   Overcast
8:15 AM 35.6 °F 29.2 °F 35.6 °F 100% 29.52 in 5.0 mi South 8.1 mph - N/A   Overcast
8:35 AM 35.6 °F 29.2 °F 35.6 °F 100% 29.51 in 5.0 mi South 8.1 mph - N/A   Overcast
8:55 AM 35.6 °F 31.7 °F 35.6 °F 100% 29.52 in 5.0 mi South 4.6 mph - N/A   Overcast
9:15 AM 35.6 °F 31.7 °F 35.6 °F 100% 29.52 in 4.0 mi South 4.6 mph - N/A   Overcast
9:35 AM 35.6 °F 29.2 °F 35.6 °F 100% 29.51 in 4.0 mi South 8.1 mph - N/A   Overcast
9:55 AM 35.6 °F 29.2 °F 33.8 °F 93% 29.51 in 3.0 mi South 8.1 mph - N/A   Overcast
10:15 AM 37.4 °F 30.8 °F 35.6 °F 93% 29.51 in 4.0 mi SSW 9.2 mph - N/A   Overcast
10:35 AM 37.4 °F 29.8 °F 35.6 °F 93% 29.51 in 4.0 mi SSW 11.5 mph - N/A   Overcast
10:55 AM 37.4 °F 29.8 °F 35.6 °F 93% 29.51 in 3.0 mi SSW 11.5 mph - N/A   Overcast
11:15 AM 37.4 °F 30.8 °F 37.4 °F 100% 29.51 in 4.0 mi SSW 9.2 mph - N/A   Overcast
11:35 AM 39.2 °F 33.6 °F 37.4 °F 93% 29.50 in 3.0 mi SSW 8.1 mph - N/A   Overcast
11:55 AM 39.2 °F 33.6 °F 37.4 °F 93% 29.50 in 4.0 mi SSW 8.1 mph - N/A   Overcast
12:15 PM 39.2 °F 33.0 °F 37.4 °F 93% 29.49 in 5.0 mi SSW 9.2 mph - N/A   Overcast
12:35 PM 39.2 °F 33.6 °F 37.4 °F 93% 29.49 in 5.0 mi SSW 8.1 mph - N/A   Overcast
12:55 PM 41.0 °F 36.4 °F 37.4 °F 87% 29.48 in 7.0 mi SSW 6.9 mph - N/A   Overcast
1:15 PM 42.8 °F 37.0 °F 37.4 °F 81% 29.48 in 9.0 mi SW 10.4 mph - N/A   Overcast
1:35 PM 44.6 °F 40.7 °F 37.4 °F 76% 29.48 in 9.0 mi WSW 6.9 mph - N/A   Mostly Cloudy
1:55 PM 44.6 °F 41.4 °F 37.4 °F 76% 29.48 in 9.0 mi WSW 5.8 mph - N/A   Mostly Cloudy
2:15 PM 44.6 °F 40.7 °F 37.4 °F 76% 29.48 in 10.0 mi West 6.9 mph - N/A   Mostly Cloudy
2:35 PM 44.6 °F 38.8 °F 35.6 °F 71% 29.49 in 10.0 mi West 11.5 mph 17.3 mph N/A   Overcast
2:55 PM 44.6 °F 39.7 °F 35.6 °F 71% 29.50 in 10.0 mi West 9.2 mph - N/A   Overcast
3:15 PM 44.6 °F 39.7 °F 35.6 °F 71% 29.51 in 10.0 mi West 9.2 mph - N/A   Overcast
3:35 PM 44.6 °F 42.2 °F 35.6 °F 71% 29.51 in 10.0 mi West 4.6 mph - N/A   Overcast
3:55 PM 44.6 °F 40.7 °F 33.8 °F 66% 29.52 in 10.0 mi WNW 6.9 mph - N/A   Overcast
4:15 PM 44.6 °F 40.2 °F 33.8 °F 66% 29.53 in 10.0 mi West 8.1 mph - N/A   Overcast
4:35 PM 42.8 °F 37.0 °F 33.8 °F 70% 29.55 in 10.0 mi West 10.4 mph - N/A   Overcast
4:55 PM 42.8 °F 37.5 °F 33.8 °F 70% 29.55 in 10.0 mi WNW 9.2 mph 17.3 mph N/A   Overcast
5:15 PM 41.0 °F 37.1 °F 33.8 °F 76% 29.56 in 10.0 mi West 5.8 mph - N/A   Overcast
5:35 PM 41.0 °F 39.0 °F 33.8 °F 76% 29.56 in 10.0 mi West 3.5 mph - N/A   Overcast
5:55 PM 41.0 °F 39.0 °F 33.8 °F 76% 29.56 in 10.0 mi NW 3.5 mph - N/A   Overcast
6:15 PM 41.0 °F 39.0 °F 33.8 °F 76% 29.58 in 10.0 mi WNW 3.5 mph - N/A   Overcast
6:35 PM 39.2 °F - 33.8 °F 81% 29.59 in 10.0 mi Calm Calm - N/A   Partly Cloudy
6:55 PM 37.4 °F - 33.8 °F 87% 29.60 in 10.0 mi Calm Calm - N/A   Clear
7:15 PM 35.6 °F - 33.8 °F 93% 29.61 in 10.0 mi Calm Calm - N/A   Clear
7:35 PM 35.6 °F - 33.8 °F 93% 29.62 in 10.0 mi Calm Calm - N/A   Clear
7:55 PM 33.8 °F - 33.8 °F 100% 29.64 in 10.0 mi Calm Calm - N/A   Clear
8:15 PM 35.6 °F - 32.0 °F 87% 29.65 in 10.0 mi Calm Calm - N/A   Clear
8:35 PM 35.6 °F 32.8 °F 32.0 °F 87% 29.66 in 10.0 mi WNW 3.5 mph - N/A   Mostly Cloudy
8:55 PM 37.4 °F 34.9 °F 32.0 °F 81% 29.66 in 10.0 mi West 3.5 mph - N/A   Overcast
9:15 PM 37.4 °F 34.9 °F 32.0 °F 81% 29.67 in 10.0 mi WNW 3.5 mph - N/A   Overcast
9:35 PM 37.4 °F 34.9 °F 30.2 °F 75% 29.66 in 10.0 mi WNW 3.5 mph - N/A   Mostly Cloudy
9:55 PM 37.4 °F 34.9 °F 30.2 °F 75% 29.67 in 10.0 mi West 3.5 mph - N/A   Mostly Cloudy
10:15 PM 37.4 °F 34.9 °F 30.2 °F 75% 29.66 in 10.0 mi NW 3.5 mph - N/A   Mostly Cloudy
10:35 PM 35.6 °F 32.8 °F 30.2 °F 81% 29.67 in 10.0 mi NW 3.5 mph - N/A   Partly Cloudy
10:55 PM 35.6 °F - 30.2 °F 81% 29.67 in 10.0 mi Calm Calm - N/A   Clear
11:15 PM 33.8 °F - 30.2 °F 87% 29.67 in 10.0 mi Calm Calm - N/A   Clear
11:35 PM 33.8 °F - 30.2 °F 87% 29.67 in 10.0 mi Calm Calm - N/A   Mostly Cloudy
11:55 PM 30.2 °F 25.4 °F 30.2 °F 100% 29.69 in 10.0 mi South 4.6 mph - N/A   Mostly Cloudy